This is the latest recevied weather packets stored in our database for station/object WI0K. If no packets are shown the sender has not sent any weather packets the latest 10 day(s).
| Time | Temp. | Humidity | Pressure | Rain* | Wind** | Luminosity | Snow |
|---|---|---|---|---|---|---|---|
| 1787881353 | 25° C | 38% | 1021.7 hPa | 0 mm | - | 2 W/m² | - |
| 1787881052 | 25° C | 39% | 1021.8 hPa | 0 mm | - | 4 W/m² | - |
| 1787880751 | 25° C | 39% | 1021.8 hPa | 0 mm | - | 6 W/m² | - |
| 1787880451 | 25.56° C | 38% | 1021.7 hPa | 0 mm | - | 8 W/m² | - |
| 1787880150 | 25.56° C | 38% | 1021.7 hPa | 0 mm | - | 14 W/m² | - |
| 1787879849 | 26.11° C | 38% | 1021.7 hPa | 0 mm | - | 22 W/m² | - |
| 1787879548 | 26.11° C | 37% | 1021.6 hPa | 0 mm | - | 29 W/m² | - |
| 1787879248 | 26.67° C | 36% | 1021.5 hPa | 0 mm | - | 35 W/m² | - |
| 1787878947 | 26.67° C | 35% | 1021.5 hPa | 0 mm | - | 40 W/m² | - |
| 1787878647 | 27.22° C | 35% | 1021.5 hPa | 0 mm | - | 47 W/m² | - |
| 1787878346 | 27.78° C | 34% | 1021.4 hPa | 0 mm | - | 49 W/m² | - |
| 1787878046 | 28.33° C | 33% | 833.8 hPa | 0 mm | - | 47 W/m² | - |
| 1787877745 | 28.89° C | 33% | 833.7 hPa | 0 mm | - | 45 W/m² | - |
| 1787877444 | 28.89° C | 33% | 833.8 hPa | 0 mm | - | 43 W/m² | - |
| 1787877150 | 28.89° C | 33% | 833.8 hPa | 0 mm | - | 42 W/m² | - |
| 1787876843 | 28.89° C | 33% | 833.8 hPa | 0 mm | - | 40 W/m² | - |
| 1787876542 | 28.89° C | 28% | 833.8 hPa | 0 mm | - | 42 W/m² | - |
| 1787876242 | 28.89° C | 31% | 833.8 hPa | 0 mm | - | 46 W/m² | - |
| 1787875942 | 28.89° C | 31% | 833.8 hPa | 0 mm | - | 48 W/m² | - |
| 1787875641 | 28.89° C | 31% | 833.8 hPa | 0 mm | - | 51 W/m² | - |
| 1787875340 | 28.89° C | 35% | 833.8 hPa | 0 mm | - | 54 W/m² | - |
| 1787875040 | 28.89° C | 31% | 833.8 hPa | 0 mm | - | 57 W/m² | - |
| 1787874739 | 28.89° C | 32% | 833.8 hPa | 0 mm | - | 63 W/m² | - |
| 1787874438 | 28.33° C | 35% | 833.9 hPa | 0 mm | - | 76 W/m² | - |
| 1787874138 | 28.33° C | 36% | 833.9 hPa | 0 mm | - | 103 W/m² | - |
* Rain latest hour (hover to see other rain measurements)
** Current wind speed in m/s (hover to see current wind gust speed)